Location: Bucquoy
(50.1391°N, 2.7097°E)
Time: 08:36:38
(UTC+00:00)

Cosmos 2251 Rocket - Pass Details

Date: 06 May 2021
Orbit: 765 x 791 km, 74.0° (Epoch: 21 June)

Event Time Altitude Azimuth Distance (km) Brightness Sun altitude
Rises 03:30:24 0° 329° (NNW) 3,251 6.8 -7.1°
Reaches altitude 10° 03:32:59 10° 320° (NW) 2,317 6.0 -6.7°
Maximum altitude 03:37:35 32° 259° (WSW) 1,303 4.2 -6.1°
Drops below altitude 10° 03:42:09 10° 197° (SSW) 2,298 5.5 -5.5°
Sets 03:44:43 0° 188° (S) 3,219 6.3 -5.2°
